DW8007 Weather Reports


time (UTC)temp
C
wind
direction
speed
KPH
gust
KPH
rain 1hr
cm
rain 24hr
cm
rain mn
cm
humidity
%
barometer
mb
20260506103203 24 203 0.0 1.6 0.00 0.03 0.00 95 1005.0
20260506102704 24 49 0.0 1.6 0.00 0.03 0.00 95 1005.1
20260506102204 24 276 0.0 1.6 0.00 0.03 0.00 95 1005.0
20260506101704 24 314 0.0 1.6 0.00 0.03 0.00 95 1005.1
20260506100703 24 75 0.0 3.2 0.00 0.03 0.00 95 1004.9
20260506100204 24 94 0.0 3.2 0.00 0.03 0.00 95 1004.8
20260506095704 24 129 1.6 3.2 0.00 0.03 0.00 95 1004.9
20260506094703 24 291 0.0 1.6 0.00 0.03 0.00 95 1004.8
20260506094204 24 94 0.0 3.2 0.00 0.00 0.00 95 1004.8
20260506093704 24 322 0.0 3.2 0.00 0.00 0.00 95 1004.7
20260506093203 24 107 0.0 3.2 0.00 0.00 0.00 95 1004.7
20260506092704 24 30 0.0 1.6 0.00 0.00 0.00 95 1004.9
20260506091703 24 193 0.0 3.2 0.00 0.00 0.00 94 1004.9
20260506091204 24 176 1.6 3.2 0.00 0.00 0.00 95 1004.8
20260506090704 24 49 0.0 3.2 0.00 0.00 0.00 94 1004.8
20260506090203 24 180 1.6 3.2 0.00 0.00 0.00 94 1004.8
20260506085704 24 137 0.0 1.6 0.00 0.00 0.00 94 1004.6
20260506085203 24 229 0.0 1.6 0.00 0.00 0.00 94 1004.6
20260506084704 24 279 0.0 1.6 0.00 0.00 0.00 94 1004.7
20260506084203 25 68 0.0 3.2 0.00 0.00 0.00 93 1004.8
20260506083703 25 53 0.0 3.2 0.00 0.00 0.00 93 1004.8
20260506083204 25 149 0.0 3.2 0.00 0.00 0.00 93 1004.7
20260506082203 25 162 0.0 3.2 0.00 0.00 0.00 93 1004.8
20260506081704 25 130 0.0 1.6 0.00 0.00 0.00 92 1004.8
20260506081203 25 186 0.0 1.6 0.00 0.00 0.00 92 1004.6
20260506080704 25 160 0.0 3.2 0.00 0.00 0.00 92 1004.8
20260506080204 25 129 0.0 3.2 0.00 0.00 0.00 93 1005.1
20260506073203 25 200 0.0 4.8 0.00 0.00 0.00 90 1005.1
20260506072204 25 170 1.6 4.8 0.00 0.00 0.00 91 1005.2
20260506071704 25 4 0.0 4.8 0.00 0.00 0.00 91 1005.2
20260506071204 25 48 0.0 4.8 0.00 0.00 0.00 90 1005.4
20260506070204 25 142 1.6 4.8 0.00 0.00 0.00 91 1005.5
20260506061703 25 154 0.0 4.8 0.00 0.00 0.00 90 1006.0
20260506061204 25 173 0.0 4.8 0.00 0.00 0.00 90 1006.1
20260506060204 25 155 1.6 3.2 0.00 0.00 0.00 90 1006.0
20260506050704 25 179 3.2 8.0 0.00 0.00 0.00 90 1005.4
20260506050204 25 172 1.6 8.0 0.00 0.00 0.00 89 1005.7
20260506044704 25 157 1.6 4.8 0.00 0.00 0.00 89 1005.6
20260506043704 25 168 3.2 8.0 0.00 0.00 0.00 89 1005.4
20260506043204 25 174 3.2 8.0 0.00 0.00 0.00 89 1005.4
20260506042703 25 152 1.6 8.0 0.00 0.00 0.00 89 1005.3
20260506041703 25 157 1.6 8.0 0.00 0.00 0.00 89 1005.1
20260506041203 25 180 3.2 9.7 0.00 0.00 0.00 89 1005.2
20260506040203 25 173 1.6 8.0 0.00 0.00 0.00 89 1005.3
20260506035703 25 139 1.6 8.0 0.00 0.00 0.00 89 1005.1
20260506035204 25 153 3.2 8.0 0.00 0.00 0.00 89 1005.2
20260506034204 25 173 3.2 8.0 0.00 0.00 0.00 89 1005.1
20260506033704 25 158 3.2 8.0 0.00 0.00 0.00 89 1005.0
20260506033204 25 156 1.6 4.8 0.00 0.00 0.00 89 1005.1
20260506032704 25 115 1.6 8.0 0.00 0.00 0.00 89 1005.1
20260506032204 25 171 1.6 8.0 0.00 0.00 0.00 88 1005.1
20260506031703 25 153 1.6 8.0 0.00 0.00 0.00 88 1005.1
20260506031203 25 150 1.6 8.0 0.00 0.00 0.00 88 1005.2
20260506030703 25 152 1.6 8.0 0.00 0.00 0.00 88 1005.2
20260506030203 25 162 3.2 8.0 0.00 0.00 0.00 88 1004.8
20260506025704 25 165 1.6 4.8 0.00 0.00 0.00 89 1004.8
20260506025204 25 148 1.6 8.0 0.00 0.00 0.00 89 1004.7
20260506024704 25 141 3.2 8.0 0.00 0.00 0.00 89 1004.8
20260506024204 25 164 1.6 4.8 0.00 0.00 0.00 88 1004.5
20260506022704 25 164 4.8 9.7 0.00 0.00 0.00 88 1004.4
20260506022204 25 171 3.2 8.0 0.00 0.00 0.00 88 1004.3
20260506021704 25 171 1.6 8.0 0.00 0.00 0.00 88 1004.4
20260506021204 25 177 3.2 8.0 0.00 0.00 0.00 88 1004.2
20260506020204 25 151 1.6 9.7 0.00 0.00 0.00 87 1004.3
20260506015203 25 174 1.6 4.8 0.00 0.00 0.00 87 1004.2
20260506014703 25 174 3.2 8.0 0.00 0.00 0.00 87 1004.1
20260506014203 25 183 1.6 8.0 0.00 0.00 0.00 87 1003.8
20260506013703 25 182 3.2 8.0 0.00 0.00 0.00 87 1003.8
20260506013204 26 138 1.6 8.0 0.00 0.00 0.00 87 1003.8
20260506012704 26 156 3.2 8.0 0.00 0.00 0.00 86 1003.7
20260506012204 26 168 3.2 8.0 0.00 0.00 0.00 86 1003.7
20260506011703 26 158 3.2 8.0 0.00 0.00 0.00 86 1003.8
20260506011204 26 177 1.6 8.0 0.00 0.00 0.00 86 1003.6
20260506010703 26 157 3.2 8.0 0.00 0.00 0.00 86 1003.4
20260506010203 26 155 1.6 8.0 0.00 0.00 0.00 86 1003.5
20260506005704 26 214 1.6 9.7 0.00 0.00 0.00 86 1003.5
20260506005203 26 159 3.2 9.7 0.00 0.00 0.00 86 1003.5
20260506004704 26 168 3.2 8.0 0.00 0.00 0.00 86 1003.4
20260506003704 26 179 1.6 9.7 0.00 0.00 0.00 85 1003.2
20260506003204 26 162 3.2 9.7 0.00 0.00 0.00 85 1003.2
20260506002704 26 166 1.6 9.7 0.00 0.00 0.00 84 1003.2
20260506002203 26 159 4.8 12.9 0.00 0.00 0.00 84 1003.3
20260506001703 26 157 4.8 12.9 0.00 0.00 0.00 83 1003.1
20260506001204 26 171 3.2 11.3 0.00 0.00 0.00 84 1003.1
20260506000703 26 162 3.2 11.3 0.00 0.00 0.00 84 1003.0
20260506000205 26 163 4.8 11.3 0.00 0.00 0.00 83 1003.1
20260505235703 26 158 3.2 11.3 0.00 0.00 0.00 83 1003.1
20260505235204 26 168 4.8 11.3 0.00 0.00 0.00 83 1002.9
20260505234704 26 155 4.8 9.7 0.00 0.00 0.00 82 1003.1
20260505234204 26 153 3.2 11.3 0.00 0.00 0.00 82 1003.1
20260505233704 26 177 4.8 11.3 0.00 0.00 0.00 82 1003.1
20260505233204 26 163 4.8 11.3 0.00 0.00 0.00 82 1003.0
20260505232204 27 171 3.2 12.9 0.00 0.00 0.00 82 1003.2
20260505231703 27 171 4.8 11.3 0.00 0.00 0.00 81 1003.0
20260505231203 26 178 3.2 9.7 0.00 0.00 0.00 82 1003.2
20260505230704 26 169 1.6 9.7 0.00 0.00 0.00 82 1003.0
20260505230203 27 163 3.2 9.7 0.00 0.00 0.00 82 1003.2
20260505225704 26 175 1.6 9.7 0.00 0.00 0.00 82 1003.1
20260505225204 26 169 3.2 9.7 0.00 0.00 0.00 82 1003.2
20260505224203 26 168 3.2 9.7 0.00 0.00 0.00 82 1003.5
20260505223704 27 159 1.6 9.7 0.00 0.00 0.00 81 1003.4
20260505222704 27 163 3.2 9.7 0.00 0.00 0.00 81 1003.5
20260505222204 27 164 3.2 8.0 0.00 0.00 0.00 81 1003.5
20260505221703 27 145 1.6 9.7 0.00 0.00 0.00 80 1003.6
20260505221204 27 163 3.2 9.7 0.00 0.00 0.00 79 1003.6
20260505220704 27 155 3.2 9.7 0.00 0.00 0.00 80 1003.5
20260505220203 27 161 1.6 9.7 0.00 0.00 0.00 79 1003.6
20260505215703 27 171 3.2 9.7 0.00 0.00 0.00 79 1003.5
20260505215204 27 162 3.2 8.0 0.00 0.00 0.00 79 1003.4
20260505214704 27 158 3.2 8.0 0.00 0.00 0.00 79 1003.6
20260505213203 27 144 3.2 9.7 0.00 0.00 0.00 79 1003.8
20260505212703 27 158 0.0 8.0 0.00 0.00 0.00 79 1004.0
20260505212203 27 168 1.6 9.7 0.00 0.00 0.00 79 1004.1
20260505211703 27 162 3.2 9.7 0.00 0.00 0.00 79 1004.3
20260505211204 27 160 3.2 9.7 0.00 0.00 0.00 78 1004.0
20260505210704 27 162 3.2 9.7 0.00 0.00 0.00 77 1004.2
20260505210204 28 187 3.2 11.3 0.00 0.00 0.00 78 1004.2
20260505205704 27 166 1.6 11.3 0.00 0.00 0.00 78 1004.2
20260505205203 28 162 4.8 11.3 0.00 0.00 0.00 77 1004.2
20260505204203 28 141 3.2 9.7 0.00 0.00 0.00 75 1004.5
20260505203703 28 160 1.6 8.0 0.00 0.00 0.00 76 1004.3
20260505202704 28 157 3.2 4.8 0.00 0.00 0.00 76 1004.5
20260505202204 28 137 1.6 8.0 0.00 0.00 0.00 77 1004.4
20260505201704 28 169 1.6 8.0 0.00 0.00 0.00 77 1004.4
20260505200704 28 151 3.2 4.8 0.00 0.00 0.00 78 1004.8
20260505195703 28 125 1.6 11.3 0.00 0.00 0.00 76 1004.8
20260505195204 28 174 4.8 11.3 0.00 0.00 0.00 74 1004.9
20260505194703 28 174 4.8 11.3 0.00 0.00 0.00 73 1004.9
20260505194204 28 181 6.4 11.3 0.00 0.00 0.00 73 1004.9
20260505193704 28 183 4.8 11.3 0.00 0.00 0.00 73 1004.9
20260505193203 28 176 4.8 9.7 0.00 0.00 0.00 73 1005.1
20260505192704 28 178 3.2 9.7 0.00 0.00 0.00 75 1005.1
20260505192204 28 173 3.2 8.0 0.00 0.00 0.00 73 1005.2
20260505191703 28 164 4.8 11.3 0.00 0.00 0.00 73 1005.2
20260505191203 28 203 3.2 11.3 0.00 0.00 0.00 74 1005.1
20260505190704 28 178 4.8 11.3 0.00 0.00 0.00 75 1005.2
20260505190204 27 182 4.8 9.7 0.00 0.00 0.00 76 1005.3
20260505185703 27 182 3.2 9.7 0.00 0.00 0.00 76 1005.4
20260505185203 28 153 3.2 9.7 0.00 0.00 0.00 76 1005.4
20260505184704 27 174 4.8 11.3 0.00 0.00 0.00 76 1005.3
20260505184204 27 176 4.8 11.3 0.00 0.00 0.00 77 1005.4
20260505183704 27 189 4.8 11.3 0.00 0.00 0.00 76 1005.5
20260505183204 28 175 3.2 8.0 0.00 0.00 0.00 75 1005.7
20260505182703 28 206 3.2 9.7 0.00 0.00 0.00 75 1005.5
20260505182204 28 171 3.2 11.3 0.00 0.00 0.00 75 1005.4
20260505181704 28 182 6.4 11.3 0.00 0.00 0.00 74 1005.4
20260505180704 27 183 3.2 9.7 0.00 0.00 0.00 75 1005.7
20260505180204 27 139 3.2 9.7 0.00 0.00 0.00 77 1005.6
20260505175704 27 225 3.2 11.3 0.00 0.00 0.00 78 1005.8
20260505175203 27 190 4.8 11.3 0.00 0.00 0.00 78 1005.6
20260505174203 27 207 3.2 8.0 0.00 0.00 0.00 80 1005.9
20260505173703 27 169 3.2 8.0 0.00 0.00 0.00 80 1006.0
20260505173203 26 199 0.0 8.0 0.00 0.00 0.00 81 1005.9
20260505172704 26 193 3.2 8.0 0.00 0.00 0.00 81 1005.9
20260505172204 26 186 1.6 8.0 0.00 0.00 0.00 82 1006.1
20260505171704 26 174 4.8 8.0 0.00 0.00 0.00 82 1006.1
20260505171203 26 190 3.2 8.0 0.00 0.00 0.00 83 1006.2
20260505170204 26 172 4.8 8.0 0.00 0.00 0.00 82 1006.0
20260505165704 26 203 1.6 8.0 0.00 0.00 0.00 83 1006.1
20260505165203 26 195 3.2 8.0 0.00 0.00 0.00 83 1006.1
20260505164704 26 269 1.6 4.8 0.00 0.00 0.00 84 1006.2
20260505164203 26 293 0.0 4.8 0.00 0.00 0.00 84 1006.2
20260505163704 26 263 1.6 8.0 0.00 0.00 0.00 84 1006.1
20260505163204 26 273 1.6 8.0 0.00 0.00 0.00 83 1006.1
20260505162704 26 189 3.2 8.0 0.00 0.00 0.00 84 1006.2
20260505162204 26 192 1.6 8.0 0.00 0.00 0.00 85 1006.2
20260505161704 26 169 4.8 8.0 0.00 0.00 0.00 85 1006.2
20260505161204 25 193 4.8 8.0 0.00 0.00 0.00 86 1006.0
20260505160704 25 186 1.6 8.0 0.00 0.00 0.00 87 1006.2
20260505160204 25 236 1.6 4.8 0.00 0.00 0.00 89 1006.1
20260505153204 25 184 1.6 9.7 0.00 0.00 0.00 90 1006.2
20260505152704 25 193 1.6 3.2 0.00 0.00 0.00 90 1005.9
20260505152203 25 52 0.0 4.8 0.00 0.00 0.00 90 1006.0
20260505151704 25 237 0.0 4.8 0.00 0.00 0.00 91 1006.1
20260505151204 25 158 1.6 4.8 0.00 0.00 0.00 91 1006.1
20260505150705 24 172 1.6 4.8 0.00 0.00 0.00 92 1006.2
20260505140204 23 52 0.0 1.6 0.00 0.00 0.00 93 1006.0
20260505130204 23 165 0.0 4.8 0.00 0.00 0.00 93 1005.7
20260505124704 23 174 1.6 4.8 0.00 0.00 0.00 93 1005.4
20260505124203 23 180 1.6 4.8 0.00 0.00 0.00 93 1005.5
20260505123703 23 184 1.6 4.8 0.00 0.00 0.00 93 1005.4
20260505123204 23 154 1.6 4.8 0.00 0.00 0.00 93 1005.6
20260505122704 23 176 1.6 4.8 0.00 0.00 0.00 93 1005.4
20260505121704 22 176 1.6 4.8 0.00 0.00 0.00 94 1005.3
20260505121203 22 184 1.6 4.8 0.00 0.00 0.00 94 1005.2
20260505120703 22 168 1.6 4.8 0.00 0.00 0.00 94 1005.2
20260505120204 22 179 1.6 3.2 0.00 0.00 0.00 94 1005.0
20260505115703 22 8 1.6 3.2 0.00 0.00 0.00 94 1005.1
20260505115203 22 137 0.0 3.2 0.00 0.00 0.00 94 1005.3
20260505114704 22 29 0.0 3.2 0.00 0.00 0.00 94 1005.4
20260505114204 22 177 0.0 3.2 0.00 0.00 0.00 94 1005.3
20260505113204 22 275 0.0 3.2 0.00 0.00 0.00 94 1005.4
20260505112703 22 159 0.0 3.2 0.00 0.00 0.00 94 1005.2
20260505112204 22 46 0.0 1.6 0.00 0.00 0.00 94 1005.1
20260505111703 22 159 0.0 3.2 0.00 0.00 0.00 94 1005.1
20260505111204 22 139 0.0 3.2 0.00 0.00 0.00 94 1005.2
20260505110703 22 172 0.0 3.2 0.00 0.00 0.00 94 1005.1
20260505110203 22 170 0.0 3.2 0.00 0.00 0.00 94 1005.2